ARIANE 1 DEB, 40774

Orbit data source: Space-Track

ARIANE 1 DEB, 40774 is space debris in HEO originally from a launch on Mon, 24 Dec 1979 UTC launched from the French Guiana (FRGUI). Debris objects in space refer to the collection of defunct objects orbiting the Earth. Examples of debris include non-operational satellites, rocket bodies, and fragments generated from explosions, collisions, or faulty payload assembly.

Loading next visibility...
Identifier
40774, 1979-104AB
Orbit
HEO
Last TLE update
1 week ago
Origin
Manufacturer
Unknown
Mission
Spacecraft
Bus & Motor
Unknown
Mass
Unknown
Launch date (UTC)
1979-12-24 (46 years ago)
Launch vehicle
Unknown
Launch site
French Guiana (FRGUI)
Object type
Payload
Rocket body
Debris
Shape & HBR
Unknown
Radar Cross Section
Small (<0.1 m²)

Expand to show TLE details & history

TLE from 1 week ago
0 ARIANE 1 DEB
1 40774U 79104AB  25178.28775201  .00000204  00000-0  59190-3 0  9991
2 40774  18.5679 306.7652 5911979  35.8328 352.1356  4.00471063 26344
Epoch: 2025-06-27T06:54Z
TLE epoch observation values (Epoch: 2025-06-27T06:54:21.773Z)
Latitude
0.00048°
Longitude
-72.44516°
Altitude
991.088 km
Speed
9.186 km/s
True Right ascension
20h 27m 09s
True Declination
0° 00' 02"
Sunlit
Object was in full shadow at epoch
Visualization orbit readout
Latitude
-6.2924°
Longitude
119.76262°
Altitude
16,312.217 km
Speed
3.367 km/s
Apparent Right ascension
09h 06m 49s
Apparent Declination
-13° 28' 25"
Sunlit
Object is in daylight
Visualization observer readout
Local Sidereal Time
20:24:24
Azimuth
337.62° N
Elevation
-61.963°
Doppler factor
1
Orbital elements
Apogee altitude
20,281.592 km
Perigee altitude
471.139 km
Semi-major axis
16,754.502 km
Eccentricity
0.5912
Inclination
18.5679°
RAAN
306.7652°
Arg. of periapsis
35.8328°
True anomaly
Unknown
Mean anomaly
352.1356°
Eccentric anomaly
Unknown
Mean motion
1.0008 °/min
Orbital period
359.71 mins
BSTAR
0.0005919
Loading maneuver chart data...
Loading SW <> Apogee altitude chart data...
Loading historical data...
Loading historical data...
Loading historical data...
Loading historical data...
Loading historical data...
Loading historical data...
Loading historical data...

ARIANE 1 DEB Visibility forecast

Observer location: undefined°, undefined°

Span
Click to sort rows by Start time (UTC) header in descending order
Start Az.
Max El. time (UTC)
Max El. Az.
Max El.
End time (UTC)
End Az.
233 mins2025-07-06 19:08:34.095Z239.498° WSW2025-07-06 19:36:34.095Z185.627° SSW28.672°2025-07-06 23:01:34.095Z148.917° SSE
|